[[{"header":{"parameterUnit":"m.s-1","parameterCategory":1,"la1":30.2991,"la2":30.254,"lo1":-89.0895,"lo2":-89.0444,"dy":0.0017,"dx":0.0017,"nx":28,"ny":28,"refTime":"2025-06-18T21:00:00:Z","depth":0,"parameterNumber":2,"parameterNumberName":"U-component_of_WINDS"},"data":[0,0,0,0,0,0,0,0,0,0,0,0,0,0,0,0,0,0,0,0,0,0,0,0,0,0,0,0,0,0,0,0,0,0,0,0,0,0,0,0,0,0,0,0,0,0,0,0,0,0,0,0,0,0,0,0,0,0,4.1383,4.1383,0,4.1386,4.1386,4.1386,4.1241,4.1237,4.1233,4.1229,4.1237,4.1241,4.1244,0,0,0,0,0,0,0,0,0,0,0,0,0,4.1257,4.126,4.1383,4.1383,4.1383,4.1386,4.1386,4.1386,4.1241,4.1237,4.1232,4.1228,4.1236,4.124,4.1245,0,0,0,0,0,0,0,0,0,0,0,0,0,4.1291,4.1261,4.1383,4.1312,4.1305,4.1386,4.1386,4.1386,4.1242,4.1237,4.1231,4.1226,4.1234,4.124,4.1245,4.1396,0,0,4.1263,4.1265,0,0,0,0,0,0,0,0,4.129,4.1296,4.1322,4.1317,4.131,4.1307,4.1344,4.1389,4.1244,4.1267,4.1229,4.1223,4.1265,4.1268,4.1281,4.1396,4.1397,4.1263,4.1267,4.1269,4.1271,0,0,0,0,0,0,0,4.1287,4.1295,4.1384,4.1323,4.1315,4.128,4.1279,4.1352,4.1299,4.1264,4.1254,4.1255,4.1261,4.1276,4.128,4.1397,4.1263,4.1268,4.1272,4.1274,4.1632,4.1638,0,0,0,0,0,0,4.1294,4.1294,4.1384,4.1384,4.1285,4.1287,4.1285,4.1314,4.1297,4.1289,4.126,4.1249,4.1269,4.1274,4.128,4.1453,4.1269,4.1274,4.1278,4.1626,4.1633,4.164,0,0,0,0,0,0,4.1292,4.1304,4.1384,4.1336,4.1344,4.1295,4.1328,4.1317,4.1332,4.1294,4.1284,4.1286,4.1265,4.1272,4.1367,4.1451,4.1277,4.1282,4.1619,4.1628,4.1637,4.1801,0,0,0,0,0,0,4.1289,4.1304,4.136,4.1339,4.1347,4.1471,4.1334,4.1321,4.1341,4.1326,4.1315,4.1308,4.1261,4.1359,4.1373,4.1456,4.1287,4.1611,4.1623,4.1634,4.1788,4.1815,4.1838,0,0,0,0,0,4.1285,4.1408,4.1364,4.1375,4.1416,4.1476,4.1481,4.1422,4.1349,4.1405,4.138,4.1309,4.144,4.137,4.1384,4.147,4.1606,4.162,4.1633,4.1777,4.1809,4.1837,0,0,0,0,0,0,4.1444,4.1404,4.1354,4.1474,4.1479,4.1451,4.1521,4.1459,4.1487,4.1472,4.14,4.1399,4.1505,4.1497,4.142,4.1613,4.151,4.1527,4.1614,4.1645,4.1669,4.1669,4.1291,0,0,0,0,0,4.1492,4.1542,4.1506,4.1615,4.162,4.157,4.1594,4.1548,4.1551,4.1554,4.1536,4.1543,4.1585,4.1615,4.1652,4.1786,4.1781,4.1852,4.1877,4.1897,4.1913,4.1981,4.2011,4.1685,4.1685,4.1685,0,0,4.1594,4.1578,4.1615,4.1646,4.1645,4.1699,4.1573,4.1637,4.1676,4.1564,4.1651,4.1639,4.1641,4.1756,4.1806,4.1753,4.2002,4.1915,4.1932,4.1936,4.1998,4.2029,4.2056,4.1694,4.1693,4.1691,0,0,4.1805,4.18,4.1888,4.1888,4.1886,4.1852,4.1874,4.1855,4.1841,4.1927,4.1843,4.1889,4.1965,4.1969,4.1981,4.2192,4.2126,4.2207,4.2336,4.2403,4.2429,4.2451,4.2524,4.2552,4.2222,4.2223,4.2223,0,4.1932,4.2009,4.1942,4.201,4.2025,4.1923,4.2012,4.2016,4.2028,4.2042,4.1982,4.2072,4.2067,4.2179,4.223,4.2245,4.2266,4.2207,4.243,4.2452,4.2472,4.2541,4.2569,4.2232,4.2231,4.223,4.2229,0,4.2163,4.2218,4.229,4.23,4.2324,4.2403,4.2348,4.2381,4.2333,4.2305,4.2393,4.2383,4.2415,4.2438,4.2393,4.2544,4.2511,4.2442,4.2336,4.2514,4.2577,4.2603,4.2246,4.2243,4.224,4.2237,0,0,4.2476,4.2446,4.2473,4.2475,4.2465,4.2506,4.258,4.2608,4.2637,4.2648,4.2707,4.2772,4.2707,4.2721,4.2675,4.2734,4.2899,4.2657,4.2656,4.2701,4.3062,4.3113,4.3145,4.2855,4.286,4.2864,4.3061,0,4.2679,4.2801,4.2741,4.287,4.2919,4.2822,4.2885,4.2886,4.2862,4.29,4.2874,4.2919,4.2831,4.2839,4.2893,4.2868,4.297,4.2853,4.291,4.2912,4.291,4.3178,4.3233,4.3419,4.3086,4.309,4.3093,0,4.2933,4.2951,4.3084,4.3061,4.308,4.3138,4.3158,4.3196,4.3195,4.3172,4.3187,4.3127,4.3197,4.3093,4.3188,4.311,4.3129,4.3121,4.3126,4.3128,4.3013,4.3186,4.3477,4.3505,4.3132,4.3129,4.3126,0,4.3145,4.3203,4.3289,4.3294,4.3271,4.3314,4.3306,4.3299,4.3319,4.3337,4.3349,4.3377,4.3392,4.3415,4.3364,4.3293,4.3466,4.3358,4.3449,4.3451,4.3489,4.3487,4.3787,4.3505,4.3505,4.3504,4.3504,0,4.3377,4.3462,4.3383,4.3436,4.3528,4.3459,4.3552,4.3534,4.3528,4.3576,4.3495,4.3542,4.3472,4.3513,4.3474,4.3558,4.3566,4.355,4.3538,4.3556,4.3558,4.3567,4.3552,4.3512,4.351,4.3509,4.3507,0,4.3629,4.358,4.3666,4.3636,4.363,4.3699,4.3673,4.3721,4.369,4.3752,4.3763,4.3715,4.3758,4.3709,4.375,4.3723,4.3836,4.3806,4.3835,4.3826,4.392,4.3911,4.4234,4.4272,4.3969,4.3972,4.3974,0,4.3779,4.3841,4.3816,4.3841,4.3838,4.388,4.3899,4.3834,4.3857,4.3859,4.3907,4.3942,4.3967,4.404,4.401,4.404,4.4009,4.412,4.4013,4.4028,4.4008,4.4004,4.4009,4.4142,4.4145,4.4148,4.4151,0,4.4051,4.4022,4.4052,4.4073,4.4097,4.4112,4.412,4.4145,4.4077,4.4108,4.4149,4.4168,4.4207,4.4243,4.4264,4.4257,4.4193,4.4185,4.4207,4.4225,4.4239,4.4231,4.3893,4.4177,4.4175,4.4173,4.4171,4.417,4.4255,4.4304,4.4293,4.4329,4.4327,4.4336,4.4378,4.4351,4.4384,4.4409,4.4369,4.4421,4.4416,4.4436,4.4436,4.4476,4.4429,4.4462,4.447,4.4479,4.4492,4.4234,4.448,4.4479,4.4479,4.4478,4.4477,0,4.452,4.4507,4.454,4.4552,4.458,4.4515,4.452,4.4547,4.4593,4.4593,4.4618,4.4665,4.4699,4.4671,4.4699,4.4736,4.4707,4.4745,4.4741,4.474,4.4534,4.451,4.4768,4.4768,4.4768,4.4768,4.4768,4.4768,4.4661,4.474,4.4711,4.4789,4.4776,4.4824,4.4832,4.4839,4.4838,4.4893,4.492,4.49,4.4889,4.4915,4.4943,4.4934,4.4947,4.4996,4.4977,4.4784,4.4755,4.4728,4.4706,4.5,4.5,4.5179,4.5181,4.5182]},{"header":{"parameterUnit":"m.s-1","parameterCategory":1,"la1":30.2991,"la2":30.254,"lo1":-89.0895,"lo2":-89.0444,"dy":0.0017,"dx":0.0017,"nx":28,"ny":28,"refTime":"2025-06-18T21:00:00:Z","depth":0,"parameterNumber":3,"parameterNumberName":"V-component_of_WINDS"},"data":[0,0,0,0,0,0,0,0,0,0,0,0,0,0,0,0,0,0,0,0,0,0,0,0,0,0,0,0,0,0,0,0,0,0,0,0,0,0,0,0,0,0,0,0,0,0,0,0,0,0,0,0,0,0,0,0,0,0,5.437,5.437,0,5.4395,5.4395,5.4396,5.435,5.4349,5.4347,5.4346,5.4369,5.4371,5.4373,0,0,0,0,0,0,0,0,0,0,0,0,0,5.4279,5.4281,5.437,5.437,5.4371,5.4395,5.4395,5.4396,5.435,5.4349,5.4347,5.4345,5.4369,5.4371,5.4374,0,0,0,0,0,0,0,0,0,0,0,0,0,5.4313,5.4282,5.437,5.4351,5.435,5.4395,5.4395,5.4396,5.4351,5.4348,5.4346,5.4344,5.4368,5.4371,5.4374,5.4438,0,0,5.4383,5.4385,0,0,0,0,0,0,0,0,5.4311,5.4316,5.4353,5.4352,5.4351,5.4367,5.4372,5.441,5.4351,5.435,5.4346,5.4343,5.437,5.4373,5.4383,5.4439,5.444,5.4384,5.4385,5.4387,5.4388,0,0,0,0,0,0,0,5.4309,5.4315,5.438,5.4354,5.4352,5.434,5.4342,5.4379,5.4373,5.435,5.4347,5.4351,5.4369,5.438,5.4383,5.4441,5.4383,5.4386,5.4388,5.4389,5.4548,5.4551,0,0,0,0,0,0,5.4309,5.4313,5.4379,5.4381,5.4325,5.4344,5.4346,5.4364,5.4372,5.4371,5.4353,5.4348,5.4376,5.4379,5.4384,5.4457,5.4387,5.439,5.4391,5.4546,5.4549,5.4551,0,0,0,0,0,0,5.4308,5.4316,5.4378,5.4346,5.4353,5.4348,5.4368,5.4366,5.4376,5.4374,5.4372,5.4365,5.4374,5.4379,5.4424,5.4457,5.4391,5.4394,5.4543,5.4547,5.455,5.4606,0,0,0,0,0,0,5.4305,5.4315,5.4341,5.4347,5.4355,5.442,5.437,5.4368,5.4382,5.4377,5.4385,5.4384,5.4373,5.442,5.4428,5.446,5.4396,5.454,5.4545,5.4549,5.4602,5.4612,5.462,0,0,0,0,0,5.4302,5.4356,5.4342,5.435,5.4387,5.4422,5.4426,5.4412,5.4385,5.441,5.4408,5.4384,5.4453,5.4425,5.4433,5.4467,5.4538,5.4543,5.4549,5.4597,5.461,5.462,0,0,0,0,0,0,5.4354,5.4357,5.4341,5.4399,5.4411,5.4414,5.4445,5.4426,5.4445,5.444,5.4421,5.4423,5.4471,5.4474,5.4443,5.4529,5.4491,5.4498,5.4525,5.4536,5.4546,5.4543,5.4399,0,0,0,0,0,5.4372,5.4401,5.4402,5.4452,5.4459,5.4451,5.4466,5.4454,5.4465,5.4469,5.4471,5.4481,5.4505,5.4521,5.4543,5.4602,5.4602,5.4629,5.4639,5.4646,5.4652,5.4681,5.4692,5.4569,5.4569,5.4569,0,0,5.441,5.4415,5.4434,5.4463,5.447,5.4499,5.4455,5.4489,5.4509,5.4474,5.4516,5.4518,5.4528,5.458,5.4603,5.4583,5.4686,5.4653,5.4659,5.4661,5.4687,5.4699,5.4709,5.4573,5.4572,5.4571,0,0,5.4493,5.4501,5.4542,5.455,5.4562,5.4556,5.4566,5.4572,5.4571,5.4614,5.4587,5.4611,5.4653,5.4661,5.467,5.4754,5.4732,5.4762,5.4809,5.4837,5.4847,5.4855,5.4883,5.4893,5.4768,5.4768,5.4768,0,5.4538,5.4582,5.4566,5.46,5.4613,5.4582,5.4623,5.4631,5.4649,5.4658,5.4636,5.4687,5.4692,5.4743,5.4764,5.4773,5.4782,5.476,5.4847,5.4855,5.4863,5.4889,5.4899,5.4771,5.4771,5.4771,5.477,0,5.4635,5.4666,5.4698,5.4715,5.4731,5.4769,5.4758,5.4775,5.4762,5.4757,5.4799,5.4804,5.4825,5.4837,5.4825,5.4886,5.4874,5.485,5.4811,5.4878,5.4902,5.4912,5.4776,5.4775,5.4774,5.4773,0,0,5.4753,5.476,5.4772,5.4778,5.4787,5.481,5.4845,5.4865,5.488,5.4893,5.492,5.4956,5.4933,5.4944,5.4932,5.4957,5.5019,5.4929,5.4929,5.4944,5.5085,5.5101,5.5113,5.5005,5.5007,5.5009,5.5083,0,5.4833,5.4894,5.488,5.4939,5.4965,5.4935,5.4965,5.4974,5.497,5.4991,5.4987,5.5011,5.4981,5.4987,5.501,5.5007,5.5047,5.5002,5.5029,5.503,5.5026,5.5126,5.5144,5.5214,5.5093,5.5094,5.5096,0,5.4936,5.4952,5.5013,5.5016,5.5026,5.5054,5.507,5.5091,5.5099,5.5094,5.5105,5.5088,5.512,5.5082,5.5126,5.5095,5.5106,5.5106,5.5108,5.5109,5.5066,5.5128,5.5237,5.5247,5.5111,5.5109,5.5108,0,5.5012,5.5049,5.509,5.5097,5.5101,5.5121,5.5123,5.5129,5.5141,5.5156,5.5163,5.5181,5.5191,5.5204,5.5191,5.5165,5.5236,5.5198,5.5232,5.5232,5.5247,5.5246,5.5357,5.5257,5.5257,5.5257,5.5257,0,5.5103,5.5141,5.5124,5.5149,5.519,5.5173,5.5214,5.5213,5.5218,5.5241,5.5217,5.5239,5.5221,5.5241,5.5232,5.5268,5.5273,5.5269,5.5266,5.527,5.527,5.5276,5.527,5.526,5.5259,5.5258,5.5258,0,5.5195,5.5185,5.5227,5.5227,5.5228,5.5258,5.5258,5.528,5.5274,5.5304,5.531,5.5301,5.5323,5.5312,5.5335,5.5328,5.5375,5.5366,5.5372,5.5369,5.5403,5.5399,5.552,5.5534,5.5427,5.5428,5.5429,0,5.5252,5.5281,5.5283,5.5297,5.5301,5.5324,5.5336,5.5319,5.5333,5.5342,5.5363,5.5383,5.5398,5.5435,5.543,5.5447,5.5437,5.5478,5.544,5.5442,5.5435,5.5433,5.5434,5.5486,5.5487,5.5488,5.5489,0,5.5355,5.5348,5.5366,5.5382,5.5397,5.5409,5.5419,5.5432,5.5415,5.5431,5.5453,5.5465,5.5488,5.5507,5.5522,5.5523,5.5503,5.5501,5.551,5.5514,5.5515,5.5513,5.5391,5.5498,5.5497,5.5497,5.5496,5.5496,5.543,5.5452,5.5457,5.5477,5.5483,5.5492,5.5512,5.5508,5.5527,5.5544,5.5533,5.5558,5.5563,5.558,5.5585,5.5603,5.5587,5.56,5.5603,5.5606,5.5609,5.5514,5.5606,5.5606,5.5606,5.5606,5.5605,0,5.5529,5.553,5.5549,5.5562,5.5578,5.5557,5.5567,5.5581,5.5603,5.561,5.5625,5.5649,5.5667,5.5663,5.5679,5.5695,5.5686,5.57,5.5697,5.5698,5.5624,5.5614,5.5707,5.5707,5.5707,5.5707,5.5707,5.5707,5.5582,5.5618,5.5612,5.565,5.565,5.5675,5.5681,5.5689,5.5694,5.5722,5.5736,5.5734,5.5735,5.5751,5.5766,5.5764,5.5771,5.5788,5.5782,5.5713,5.5703,5.5694,5.5684,5.579,5.579,5.5854,5.5854,5.5855]}]]